20040106,000015,17837,32.955000,-117.303000,NaN,14.327,33.113,40.212,  NaN,0.0, NaN, NaN, NaN, NaN, NaN,327.051,14.50,1019.01,64.90,NaN,179.0,NaN,4.3,NaN,332.2,NaN,4.3,NaN,NaN, NaN,NaN,141.0,NaN,NaN,NaN,2,0.3,000013,   NaN,153.2,     NaN,      NaN,NaN,-0.6,NaN,14.331, NaN,NaN,NaN, NaN, NaN

20040106,000045,17867,32.955000,-117.303000,NaN,14.329,33.112,40.212,  NaN,0.0, NaN, NaN, NaN, NaN, NaN,327.182,14.50,1019.04,66.00,NaN,184.0,NaN,4.5,NaN,335.8,NaN,4.9,NaN,NaN, NaN,NaN,117.0,NaN,NaN,NaN,2,0.2,000043,   NaN,149.9,     NaN,      NaN,NaN,-0.6,NaN,14.333, NaN,NaN,NaN, NaN, NaN

20040106,000115,17897,32.955167,-117.302833,NaN,14.327,33.112,40.211,  NaN,0.0, NaN, NaN, NaN, NaN, NaN,327.146,14.50,1019.08,63.00,NaN,188.0,NaN,4.7,NaN,332.8,NaN,4.7,NaN,NaN, NaN,NaN,170.0,NaN,NaN,NaN,2,0.3,000073,   NaN,147.1,     NaN,      NaN,NaN,-0.7,NaN,14.331, NaN,NaN,NaN, NaN, NaN

20040106,000145,17927,32.955167,-117.302833,NaN,14.327,33.112,40.211,  NaN,0.0, NaN, NaN, NaN, NaN, NaN,327.100,14.60,1019.02,62.10,NaN,192.0,NaN,4.4,NaN,333.8,NaN,4.6,NaN,NaN, NaN,NaN,146.0,NaN,NaN,NaN,2,0.2,000103,   NaN,144.0,     NaN,      NaN,NaN,-0.6,NaN,14.331, NaN,NaN,NaN, NaN, NaN

20040106,000215,17957,32.955167,-117.302833,NaN,14.326,33.111,40.209,  NaN,0.0, NaN, NaN, NaN, NaN, NaN,327.153,14.90,1019.07,62.10,NaN,185.0,NaN,4.8,NaN,330.4,NaN,5.0,NaN,NaN, NaN,NaN,117.0,NaN,NaN,NaN,2,0.5,000133,   NaN,140.9,     NaN,      NaN,NaN,-0.6,NaN,14.329, NaN,NaN,NaN, NaN, NaN

20040106,000245,17987,32.955167,-117.302833,NaN,14.326,33.111,40.208,  NaN,0.0, NaN, NaN, NaN, NaN, NaN,327.153,15.00,1019.00,61.70,NaN,190.0,NaN,4.8,NaN,329.8,NaN,4.6,NaN,NaN, NaN,NaN,131.0,NaN,NaN,NaN,2,0.4,000163,   NaN,138.4,     NaN,      NaN,NaN,-0.6,NaN,14.329, NaN,NaN,NaN, NaN, NaN

20040106,000315,18017,32.955167,-117.302833,NaN,14.327,33.112,40.210,  NaN,0.0, NaN, NaN, NaN, NaN, NaN,327.127,15.10,1019.01,63.70,NaN,195.0,NaN,4.1,NaN,329.8,NaN,4.5,NaN,NaN, NaN,NaN,147.0,NaN,NaN,NaN,2,0.3,000193,   NaN,135.0,     NaN,      NaN,NaN,-0.6,NaN,14.330, NaN,NaN,NaN, NaN, NaN

20040106,000345,18047,32.955167,-117.302833,NaN,14.328,33.112,40.211,  NaN,0.0, NaN, NaN, NaN, NaN, NaN,327.165,14.90,1019.01,63.50,NaN,201.0,NaN,4.7,NaN,330.6,NaN,4.8,NaN,NaN, NaN,NaN,139.0,NaN,NaN,NaN,2,0.3,000223,   NaN,132.2,     NaN,      NaN,NaN,-0.6,NaN,14.331, NaN,NaN,NaN, NaN, NaN

20040106,000415,18077,32.955167,-117.302833,NaN,14.319,33.114,40.205,  NaN,0.0, NaN, NaN, NaN, NaN, NaN,326.851,14.80,1018.97,63.00,NaN,203.0,NaN,4.9,NaN,329.5,NaN,4.5,NaN,NaN, NaN,NaN,163.0,NaN,NaN,NaN,2,0.4,000253,   NaN,129.4,     NaN,      NaN,NaN,-0.6,NaN,14.322, NaN,NaN,NaN, NaN, NaN

20040106,000445,18107,32.955000,-117.302833,NaN,14.305,33.114,40.192,  NaN,0.0, NaN, NaN, NaN, NaN, NaN,326.558,14.60,1018.99,65.00,NaN,201.0,NaN,4.2,NaN,323.9,NaN,4.3,NaN,NaN, NaN,NaN,175.0,NaN,NaN,NaN,2,0.4,000283,   NaN,126.9,     NaN,      NaN,NaN,-0.5,NaN,14.309, NaN,NaN,NaN, NaN, NaN

20040106,000515,18137,32.955000,-117.302833,NaN,14.283,33.115,40.173,  NaN,0.0, NaN, NaN, NaN, NaN, NaN,325.995,14.60,1019.03,65.30,NaN,205.0,NaN,4.3,NaN,326.3,NaN,4.1,NaN,NaN, NaN,NaN,174.0,NaN,NaN,NaN,2,0.4,000313,   NaN,124.3,     NaN,      NaN,NaN,-0.6,NaN,14.286, NaN,NaN,NaN, NaN, NaN

20040106,000545,18167,32.955000,-117.302833,NaN,14.268,33.111,40.155,  NaN,0.0, NaN, NaN, NaN, NaN, NaN,326.032,14.60,1018.94,64.50,NaN,204.0,NaN,4.0,NaN,324.9,NaN,4.2,NaN,NaN, NaN,NaN,176.0,NaN,NaN,NaN,2,0.5,000343,   NaN,122.3,     NaN,      NaN,NaN,-0.6,NaN,14.272, NaN,NaN,NaN, NaN, NaN

20040106,000615,18197,32.955000,-117.302833,NaN,14.256,33.112,40.143,  NaN,0.0, NaN, NaN, NaN, NaN, NaN,325.736,14.60,1018.91,67.30,NaN,205.0,NaN,3.6,NaN,323.5,NaN,3.7,NaN,NaN, NaN,NaN,176.0,NaN,NaN,NaN,2,0.4,000373,   NaN,119.8,     NaN,      NaN,NaN,-0.6,NaN,14.259, NaN,NaN,NaN, NaN, NaN

20040106,000645,18227,32.955000,-117.302833,NaN,14.251,33.112,40.139,  NaN,0.0, NaN, NaN, NaN, NaN, NaN,325.639,14.80,1018.93,69.10,NaN,208.0,NaN,4.2,NaN,325.6,NaN,4.4,NaN,NaN, NaN,NaN,175.0,NaN,NaN,NaN,2,0.4,000403,   NaN,117.9,     NaN,      NaN,NaN,-0.7,NaN,14.254, NaN,NaN,NaN, NaN, NaN

20040106,000715,18257,32.955000,-117.302833,NaN,14.242,33.111,40.130,  NaN,0.0, NaN, NaN, NaN, NaN, NaN,325.489,14.60,1018.93,66.90,NaN,214.0,NaN,4.6,NaN,327.1,NaN,4.7,NaN,NaN, NaN,NaN,177.0,NaN,NaN,NaN,2,0.5,000433,   NaN,115.8,     NaN,      NaN,NaN,-0.6,NaN,14.245, NaN,NaN,NaN, NaN, NaN

20040106,000745,18287,32.954833,-117.302833,NaN,14.236,33.110,40.124,  NaN,0.0, NaN, NaN, NaN, NaN, NaN,325.420,14.60,1018.93,67.40,NaN,209.0,NaN,3.6,NaN,321.8,NaN,4.0,NaN,NaN, NaN,NaN,186.0,NaN,NaN,NaN,2,0.4,000463,   NaN,114.2,     NaN,      NaN,NaN,-0.7,NaN,14.239, NaN,NaN,NaN, NaN, NaN

20040106,000815,18317,32.954833,-117.302833,NaN,14.242,33.109,40.128,  NaN,0.0, NaN, NaN, NaN, NaN, NaN,325.629,14.60,1018.93,67.20,NaN,211.0,NaN,4.1,NaN,323.1,NaN,4.3,NaN,NaN, NaN,NaN,179.0,NaN,NaN,NaN,2,0.5,000493,   NaN,112.9,     NaN,      NaN,NaN,-0.6,NaN,14.245, NaN,NaN,NaN, NaN, NaN

20040106,000845,18347,32.954833,-117.302833,NaN,14.247,33.110,40.134,  NaN,0.0, NaN, NaN, NaN, NaN, NaN,325.677,14.60,1018.96,66.60,NaN,213.0,NaN,3.8,NaN,323.6,NaN,4.0,NaN,NaN, NaN,NaN,186.0,NaN,NaN,NaN,2,0.5,000523,   NaN,112.6,     NaN,      NaN,NaN,-0.6,NaN,14.251, NaN,NaN,NaN, NaN, NaN

20040106,000915,18377,32.954833,-117.302833,NaN,14.259,33.109,40.143,  NaN,0.0, NaN, NaN, NaN, NaN, NaN,325.982,14.60,1018.95,66.80,NaN,210.0,NaN,3.9,NaN,322.3,NaN,4.3,NaN,NaN, NaN,NaN,187.0,NaN,NaN,NaN,2,0.5,000553,   NaN,113.0,     NaN,      NaN,NaN,-0.6,NaN,14.262, NaN,NaN,NaN, NaN, NaN

20040106,000945,18407,32.954667,-117.302833,NaN,14.269,33.109,40.153,  NaN,0.0, NaN, NaN, NaN, NaN, NaN,326.172,14.60,1019.00,66.00,NaN,214.0,NaN,4.4,NaN,326.8,NaN,4.6,NaN,NaN, NaN,NaN,188.0,NaN,NaN,NaN,2,0.6,000583,   NaN,114.0,     NaN,      NaN,NaN,-0.6,NaN,14.272, NaN,NaN,NaN, NaN, NaN

20040106,001015,18437,32.954667,-117.302833,NaN,14.268,33.111,40.154,  NaN,0.0, NaN, NaN, NaN, NaN, NaN,326.058,14.60,1018.94,64.50,NaN,208.0,NaN,4.6,NaN,325.0,NaN,4.6,NaN,NaN, NaN,NaN,190.0,NaN,NaN,NaN,2,0.6,000613,   NaN,115.0,     NaN,      NaN,NaN,-0.6,NaN,14.272, NaN,NaN,NaN, NaN, NaN

20040106,001045,18467,32.954667,-117.302833,NaN,14.267,33.109,40.152,  NaN,0.0, NaN, NaN, NaN, NaN, NaN,326.109,14.60,1019.03,63.10,NaN,215.0,NaN,4.6,NaN,328.3,NaN,4.7,NaN,NaN, NaN,NaN,194.0,NaN,NaN,NaN,2,0.6,000643,   NaN,115.5,     NaN,      NaN,NaN,-0.6,NaN,14.270, NaN,NaN,NaN, NaN, NaN

20040106,001115,18497,32.954667,-117.302833,NaN,14.269,33.110,40.154,  NaN,0.0, NaN, NaN, NaN, NaN, NaN,326.147,14.60,1018.98,65.30,NaN,210.0,NaN,4.7,NaN,325.6,NaN,4.7,NaN,NaN, NaN,NaN,198.0,NaN,NaN,NaN,2,0.6,000673,   NaN,116.5,     NaN,      NaN,NaN,-0.6,NaN,14.273, NaN,NaN,NaN, NaN, NaN

20040106,001145,18527,32.954500,-117.302833,NaN,14.273,33.111,40.159,  NaN,0.0, NaN, NaN, NaN, NaN, NaN,326.154,14.60,1018.98,63.60,NaN,213.0,NaN,4.3,NaN,328.6,NaN,4.7,NaN,NaN, NaN,NaN,195.0,NaN,NaN,NaN,2,0.6,000703,   NaN,117.7,     NaN,      NaN,NaN,-0.6,NaN,14.277, NaN,NaN,NaN, NaN, NaN

20040106,001215,18557,32.954500,-117.302833,NaN,14.270,33.111,40.156,  NaN,0.0, NaN, NaN, NaN, NaN, NaN,326.074,14.60,1018.90,64.00,NaN,204.0,NaN,3.8,NaN,322.9,NaN,4.2,NaN,NaN, NaN,NaN,197.0,NaN,NaN,NaN,2,0.7,000733,   NaN,119.1,     NaN,      NaN,NaN,-0.6,NaN,14.273, NaN,NaN,NaN, NaN, NaN

20040106,001245,18587,32.954500,-117.302833,NaN,14.272,33.112,40.159,  NaN,0.0, NaN, NaN, NaN, NaN, NaN,326.043,14.80,1018.96,64.60,NaN,205.0,NaN,3.8,NaN,323.3,NaN,4.0,NaN,NaN, NaN,NaN,195.0,NaN,NaN,NaN,2,0.7,000763,   NaN,120.9,     NaN,      NaN,NaN,-0.5,NaN,14.275, NaN,NaN,NaN, NaN, NaN

20040106,001315,18617,32.954333,-117.302833,NaN,14.265,33.112,40.153,  NaN,0.0, NaN, NaN, NaN, NaN, NaN,325.880,14.60,1018.96,66.60,NaN,200.0,NaN,3.8,NaN,322.6,NaN,4.0,NaN,NaN, NaN,NaN,194.0,NaN,NaN,NaN,2,0.5,000793,   NaN,122.9,     NaN,      NaN,NaN,-0.6,NaN,14.269, NaN,NaN,NaN, NaN, NaN

20040106,001345,18647,32.954333,-117.302833,NaN,14.262,33.112,40.150,  NaN,0.0, NaN, NaN, NaN, NaN, NaN,325.828,14.60,1018.89,61.70,NaN,198.0,NaN,3.9,NaN,322.2,NaN,4.0,NaN,NaN, NaN,NaN,187.0,NaN,NaN,NaN,2,0.6,000823,   NaN,125.6,     NaN,      NaN,NaN,-0.6,NaN,14.265, NaN,NaN,NaN, NaN, NaN

20040106,001415,18677,32.954167,-117.303000,NaN,14.259,33.112,40.147,  NaN,0.0, NaN, NaN, NaN, NaN, NaN,325.791,14.80,1018.90,65.70,NaN,186.0,NaN,3.5,NaN,322.7,NaN,4.0,NaN,NaN, NaN,NaN,155.0,NaN,NaN,NaN,2,0.8,000853,   NaN,135.4,     NaN,      NaN,NaN,-0.5,NaN,14.263, NaN,NaN,NaN, NaN, NaN

20040106,001445,18707,32.953833,-117.303000,NaN,14.259,33.110,40.145,  NaN,0.0, NaN, NaN, NaN, NaN, NaN,325.910,14.60,1018.99,64.60,NaN,175.0,NaN,2.5,NaN,334.7,NaN,3.2,NaN,NaN, NaN,NaN,160.0,NaN,NaN,NaN,2,1.4,000883,   NaN,158.7,     NaN,      NaN,NaN,-0.4,NaN,14.263, NaN,NaN,NaN, NaN, NaN

20040106,001515,18737,32.953667,-117.302833,NaN,14.259,33.112,40.147,  NaN,0.0, NaN, NaN, NaN, NaN, NaN,325.790,14.60,1018.89,63.90,NaN,144.0,NaN,3.0,NaN,342.5,NaN,3.7,NaN,NaN, NaN,NaN,179.0,NaN,NaN,NaN,2,1.7,000913,   NaN,188.9,     NaN,      NaN,NaN,-0.4,NaN,14.263, NaN,NaN,NaN, NaN, NaN

20040106,001545,18767,32.953500,-117.303000,NaN,14.265,33.114,40.155,  NaN,0.0, NaN, NaN, NaN, NaN, NaN,325.762,14.60,1018.87,67.20,NaN,112.0,NaN,2.6,NaN,349.7,NaN,3.2,NaN,NaN, NaN,NaN,204.0,NaN,NaN,NaN,2,1.8,000943,   NaN,223.4,     NaN,      NaN,NaN,-0.2,NaN,14.269, NaN,NaN,NaN, NaN, NaN

20040106,001615,18797,32.953333,-117.303167,NaN,14.255,33.113,40.144,  NaN,0.0, NaN, NaN, NaN, NaN, NaN,325.598,14.50,1018.93,67.30,NaN,66.0,NaN,2.7,NaN,347.4,NaN,2.3,NaN,NaN, NaN,NaN,232.0,NaN,NaN,NaN,2,1.8,000973,   NaN,260.2,     NaN,      NaN,NaN,0.0,NaN,14.258, NaN,NaN,NaN, NaN, NaN

20040106,001645,18827,32.953167,-117.303333,NaN,14.255,33.113,40.145,  NaN,0.0, NaN, NaN, NaN, NaN, NaN,325.619,14.50,1018.98,66.30,NaN,37.0,NaN,4.2,NaN,322.2,NaN,4.0,NaN,NaN, NaN,NaN,247.0,NaN,NaN,NaN,2,1.2,001003,   NaN,282.2,     NaN,      NaN,NaN,-0.1,NaN,14.258, NaN,NaN,NaN, NaN, NaN

20040106,001715,18857,32.953167,-117.303500,NaN,14.252,33.113,40.142,  NaN,0.0, NaN, NaN, NaN, NaN, NaN,325.559,14.50,1019.02,64.90,NaN,28.0,NaN,4.1,NaN,323.3,NaN,3.8,NaN,NaN, NaN,NaN,239.0,NaN,NaN,NaN,2,0.8,001033,   NaN,293.4,     NaN,      NaN,NaN,-0.3,NaN,14.256, NaN,NaN,NaN, NaN, NaN

20040106,001745,18887,32.953167,-117.303500,NaN,14.251,33.113,40.140,  NaN,0.0, NaN, NaN, NaN, NaN, NaN,325.566,14.50,1018.93,66.70,NaN,19.0,NaN,4.3,NaN,324.7,NaN,3.8,NaN,NaN, NaN,NaN,253.0,NaN,NaN,NaN,2,0.7,001063,   NaN,304.3,     NaN,      NaN,NaN,-0.3,NaN,14.254, NaN,NaN,NaN, NaN, NaN

20040106,001815,18917,32.953167,-117.303500,NaN,14.254,33.112,40.142,  NaN,0.0, NaN, NaN, NaN, NaN, NaN,325.671,14.50,1019.03,63.90,NaN,11.0,NaN,4.5,NaN,323.5,NaN,4.2,NaN,NaN, NaN,NaN,245.0,NaN,NaN,NaN,2,0.5,001093,   NaN,312.2,     NaN,      NaN,NaN,-0.5,NaN,14.257, NaN,NaN,NaN, NaN, NaN

20040106,001845,18947,32.953167,-117.303500,NaN,14.257,33.113,40.145,  NaN,0.0, NaN, NaN, NaN, NaN, NaN,325.683,14.50,1018.98,61.70,NaN,5.0,NaN,4.3,NaN,322.7,NaN,4.4,NaN,NaN, NaN,NaN,227.0,NaN,NaN,NaN,2,0.4,001123,   NaN,316.4,     NaN,      NaN,NaN,-0.6,NaN,14.260, NaN,NaN,NaN, NaN, NaN

20040106,001915,18977,32.953167,-117.303667,NaN,14.257,33.113,40.146,  NaN,0.0, NaN, NaN, NaN, NaN, NaN,325.684,14.60,1018.99,63.50,NaN,3.0,NaN,4.1,NaN,323.2,NaN,3.5,NaN,NaN, NaN,NaN,197.0,NaN,NaN,NaN,2,0.3,001153,   NaN,319.0,     NaN,      NaN,NaN,-0.6,NaN,14.260, NaN,NaN,NaN, NaN, NaN

20040106,001945,19007,32.953167,-117.303667,NaN,14.256,33.113,40.145,  NaN,0.0, NaN, NaN, NaN, NaN, NaN,325.664,14.60,1019.00,62.30,NaN,1.0,NaN,3.4,NaN,320.7,NaN,3.3,NaN,NaN, NaN,NaN,178.0,NaN,NaN,NaN,2,0.6,001183,   NaN,320.8,     NaN,      NaN,NaN,-0.6,NaN,14.259, NaN,NaN,NaN, NaN, NaN

20040106,002015,19037,32.953167,-117.303667,NaN,14.259,33.111,40.147,  NaN,0.0, NaN, NaN, NaN, NaN, NaN,325.814,14.60,1018.97,62.60,NaN,2.0,NaN,3.1,NaN,321.9,NaN,2.8,NaN,NaN, NaN,NaN,177.0,NaN,NaN,NaN,2,0.5,001213,   NaN,321.9,     NaN,      NaN,NaN,-0.6,NaN,14.263, NaN,NaN,NaN, NaN, NaN

20040106,002045,19067,32.953000,-117.303667,NaN,14.260,33.112,40.148,  NaN,0.0, NaN, NaN, NaN, NaN, NaN,325.763,14.60,1018.98,62.80,NaN,355.0,NaN,3.1,NaN,323.3,NaN,2.8,NaN,NaN, NaN,NaN,164.0,NaN,NaN,NaN,2,0.6,001243,   NaN,323.3,     NaN,      NaN,NaN,-0.6,NaN,14.263, NaN,NaN,NaN, NaN, NaN

20040106,002115,19097,32.953000,-117.303667,NaN,14.261,33.112,40.149,  NaN,0.0, NaN, NaN, NaN, NaN, NaN,325.851,14.60,1018.95,63.00,NaN,355.0,NaN,2.9,NaN,318.6,NaN,2.8,NaN,NaN, NaN,NaN,152.0,NaN,NaN,NaN,2,0.7,001273,   NaN,325.4,     NaN,      NaN,NaN,-0.6,NaN,14.265, NaN,NaN,NaN, NaN, NaN

20040106,002145,19127,32.953000,-117.303667,NaN,14.261,33.112,40.149,  NaN,0.0, NaN, NaN, NaN, NaN, NaN,325.783,14.60,1018.95,63.90,NaN,353.0,NaN,2.5,NaN,319.2,NaN,2.4,NaN,NaN, NaN,NaN,148.0,NaN,NaN,NaN,2,0.9,001303,   NaN,327.7,     NaN,      NaN,NaN,-0.7,NaN,14.264, NaN,NaN,NaN, NaN, NaN

20040106,002215,19157,32.952833,-117.303667,NaN,14.264,33.111,40.151,  NaN,0.0, NaN, NaN, NaN, NaN, NaN,325.934,14.60,1019.00,66.40,NaN,350.0,NaN,3.1,NaN,316.2,NaN,2.8,NaN,NaN, NaN,NaN,172.0,NaN,NaN,NaN,2,0.8,001333,   NaN,328.9,     NaN,      NaN,NaN,-0.7,NaN,14.267, NaN,NaN,NaN, NaN, NaN

20040106,002245,19187,32.952833,-117.303667,NaN,14.270,33.113,40.158,  NaN,0.0, NaN, NaN, NaN, NaN, NaN,325.955,14.60,1018.98,65.50,NaN,352.0,NaN,3.7,NaN,316.3,NaN,3.3,NaN,NaN, NaN,NaN,167.0,NaN,NaN,NaN,2,0.7,001363,   NaN,327.4,     NaN,      NaN,NaN,-0.7,NaN,14.274, NaN,NaN,NaN, NaN, NaN

20040106,002315,19217,32.952833,-117.303667,NaN,14.272,33.112,40.160,  NaN,0.0, NaN, NaN, NaN, NaN, NaN,326.039,14.60,1018.96,65.10,NaN,351.0,NaN,2.5,NaN,315.1,NaN,2.5,NaN,NaN, NaN,NaN,153.0,NaN,NaN,NaN,2,0.6,001393,   NaN,325.5,     NaN,      NaN,NaN,-0.6,NaN,14.276, NaN,NaN,NaN, NaN, NaN

20040106,002345,19247,32.952667,-117.303667,NaN,14.273,33.112,40.160,  NaN,0.0, NaN, NaN, NaN, NaN, NaN,326.084,14.60,1018.98,64.80,NaN,355.0,NaN,3.2,NaN,317.1,NaN,2.8,NaN,NaN, NaN,NaN,157.0,NaN,NaN,NaN,2,0.6,001423,   NaN,323.5,     NaN,      NaN,NaN,-0.6,NaN,14.276, NaN,NaN,NaN, NaN, NaN

20040106,002415,19277,32.952667,-117.303667,NaN,14.282,33.111,40.168,  NaN,0.0, NaN, NaN, NaN, NaN, NaN,326.277,14.60,1019.02,62.10,NaN,352.0,NaN,3.5,NaN,312.2,NaN,3.5,NaN,NaN, NaN,NaN,149.0,NaN,NaN,NaN,2,0.6,001453,   NaN,322.0,     NaN,      NaN,NaN,-0.7,NaN,14.286, NaN,NaN,NaN, NaN, NaN

20040106,002445,19307,32.952667,-117.303667,NaN,14.294,33.112,40.180,  NaN,0.0, NaN, NaN, NaN, NaN, NaN,326.467,14.60,1019.00,63.50,NaN,358.0,NaN,3.9,NaN,320.1,NaN,3.6,NaN,NaN, NaN,NaN,146.0,NaN,NaN,NaN,2,0.6,001483,   NaN,322.3,     NaN,      NaN,NaN,-0.7,NaN,14.297, NaN,NaN,NaN, NaN, NaN

20040106,002515,19337,32.952500,-117.303500,NaN,14.297,33.113,40.183,  NaN,0.0, NaN, NaN, NaN, NaN, NaN,326.496,14.60,1018.95,61.80,NaN,1.0,NaN,3.8,NaN,321.3,NaN,3.5,NaN,NaN, NaN,NaN,130.0,NaN,NaN,NaN,2,0.6,001513,   NaN,319.9,     NaN,      NaN,NaN,-0.6,NaN,14.301, NaN,NaN,NaN, NaN, NaN

20040106,002545,19367,32.952500,-117.303500,NaN,14.293,33.115,40.182,  NaN,0.0, NaN, NaN, NaN, NaN, NaN,326.210,14.60,1018.96,62.60,NaN,7.0,NaN,3.6,NaN,323.3,NaN,3.5,NaN,NaN, NaN,NaN,151.0,NaN,NaN,NaN,2,0.5,001543,   NaN,314.5,     NaN,      NaN,NaN,-0.6,NaN,14.296, NaN,NaN,NaN, NaN, NaN

20040106,002615,19397,32.952500,-117.303500,NaN,14.282,33.114,40.171,  NaN,0.0, NaN, NaN, NaN, NaN, NaN,326.066,14.60,1018.97,64.00,NaN,11.0,NaN,4.1,NaN,320.6,NaN,3.7,NaN,NaN, NaN,NaN,152.0,NaN,NaN,NaN,2,0.5,001573,   NaN,308.8,     NaN,      NaN,NaN,-0.6,NaN,14.286, NaN,NaN,NaN, NaN, NaN

20040106,002645,19427,32.952333,-117.303500,NaN,14.284,33.112,40.170,  NaN,0.0, NaN, NaN, NaN, NaN, NaN,326.225,14.60,1018.94,63.00,NaN,18.0,NaN,3.9,NaN,323.0,NaN,3.7,NaN,NaN, NaN,NaN,152.0,NaN,NaN,NaN,2,0.6,001603,   NaN,304.6,     NaN,      NaN,NaN,-0.6,NaN,14.287, NaN,NaN,NaN, NaN, NaN

20040106,002715,19457,32.952333,-117.303500,NaN,14.289,33.112,40.175,  NaN,0.0, NaN, NaN, NaN, NaN, NaN,326.346,14.50,1018.91,64.40,NaN,18.0,NaN,3.8,NaN,321.1,NaN,3.5,NaN,NaN, NaN,NaN,154.0,NaN,NaN,NaN,2,0.6,001633,   NaN,301.3,     NaN,      NaN,NaN,-0.6,NaN,14.292, NaN,NaN,NaN, NaN, NaN

20040106,002745,19487,32.952333,-117.303333,NaN,14.292,33.114,40.180,  NaN,0.0, NaN, NaN, NaN, NaN, NaN,326.309,14.50,1018.92,63.40,NaN,21.0,NaN,3.7,NaN,321.5,NaN,3.5,NaN,NaN, NaN,NaN,157.0,NaN,NaN,NaN,2,0.5,001663,   NaN,299.3,     NaN,      NaN,NaN,-0.6,NaN,14.295, NaN,NaN,NaN, NaN, NaN

20040106,002815,19517,32.952333,-117.303333,NaN,14.277,33.115,40.167,  NaN,0.0, NaN, NaN, NaN, NaN, NaN,325.925,14.50,1018.89,66.90,NaN,20.0,NaN,3.3,NaN,323.1,NaN,3.1,NaN,NaN, NaN,NaN,178.0,NaN,NaN,NaN,2,0.6,001693,   NaN,300.0,     NaN,      NaN,NaN,-0.6,NaN,14.281, NaN,NaN,NaN, NaN, NaN

20040106,002845,19547,32.952167,-117.303333,NaN,14.257,33.114,40.148,  NaN,0.0, NaN, NaN, NaN, NaN, NaN,325.560,14.50,1018.97,64.50,NaN,20.0,NaN,3.1,NaN,318.3,NaN,3.1,NaN,NaN, NaN,NaN,178.0,NaN,NaN,NaN,2,0.6,001723,   NaN,298.5,     NaN,      NaN,NaN,-0.6,NaN,14.261, NaN,NaN,NaN, NaN, NaN

20040106,002915,19577,32.952167,-117.303333,NaN,14.240,33.114,40.132,  NaN,0.0, NaN, NaN, NaN, NaN, NaN,325.283,14.50,1018.89,68.00,NaN,17.0,NaN,3.7,NaN,321.9,NaN,3.3,NaN,NaN, NaN,NaN,206.0,NaN,NaN,NaN,2,0.5,001753,   NaN,301.7,     NaN,      NaN,NaN,-0.6,NaN,14.244, NaN,NaN,NaN, NaN, NaN

20040106,002945,19607,32.952167,-117.303333,NaN,14.227,33.113,40.119,  NaN,0.0, NaN, NaN, NaN, NaN, NaN,325.035,14.50,1018.91,66.00,NaN,15.0,NaN,3.0,NaN,324.4,NaN,2.7,NaN,NaN, NaN,NaN,211.0,NaN,NaN,NaN,2,0.5,001783,   NaN,308.0,     NaN,      NaN,NaN,-0.6,NaN,14.231, NaN,NaN,NaN, NaN, NaN

20040106,003015,19637,32.952000,-117.303333,NaN,14.221,33.112,40.111,  NaN,0.0, NaN, NaN, NaN, NaN, NaN,325.039,14.50,1018.94,65.30,NaN,7.0,NaN,2.9,NaN,315.9,NaN,2.8,NaN,NaN, NaN,NaN,195.0,NaN,NaN,NaN,2,0.5,001813,   NaN,309.3,     NaN,      NaN,NaN,-0.6,NaN,14.224, NaN,NaN,NaN, NaN, NaN

20040106,003045,19667,32.952000,-117.303333,NaN,14.214,33.112,40.105,  NaN,0.0, NaN, NaN, NaN, NaN, NaN,324.899,14.50,1018.99,66.80,NaN,7.0,NaN,2.9,NaN,317.2,NaN,2.9,NaN,NaN, NaN,NaN,174.0,NaN,NaN,NaN,2,0.5,001843,   NaN,307.3,     NaN,      NaN,NaN,-0.6,NaN,14.218, NaN,NaN,NaN, NaN, NaN

20040106,003115,19697,32.952000,-117.303333,NaN,14.219,33.109,40.107,  NaN,0.0, NaN, NaN, NaN, NaN, NaN,325.186,14.50,1018.93,67.70,NaN,15.0,NaN,3.0,NaN,319.9,NaN,2.6,NaN,NaN, NaN,NaN,183.0,NaN,NaN,NaN,2,0.6,001873,   NaN,304.2,     NaN,      NaN,NaN,-0.6,NaN,14.223, NaN,NaN,NaN, NaN, NaN

20040106,003145,19727,32.951833,-117.303333,NaN,14.229,33.110,40.117,  NaN,0.0, NaN, NaN, NaN, NaN, NaN,325.309,14.50,1018.99,67.30,NaN,11.0,NaN,3.2,NaN,320.0,NaN,2.9,NaN,NaN, NaN,NaN,198.0,NaN,NaN,NaN,2,0.5,001903,   NaN,303.7,     NaN,      NaN,NaN,-0.5,NaN,14.232, NaN,NaN,NaN, NaN, NaN

20040106,003215,19757,32.951833,-117.303333,NaN,14.227,33.111,40.116,  NaN,0.0, NaN, NaN, NaN, NaN, NaN,325.177,14.50,1018.98,66.60,NaN,16.0,NaN,3.4,NaN,320.4,NaN,3.0,NaN,NaN, NaN,NaN,199.0,NaN,NaN,NaN,2,0.5,001933,   NaN,305.2,     NaN,      NaN,NaN,-0.6,NaN,14.230, NaN,NaN,NaN, NaN, NaN

20040106,003245,19787,32.951833,-117.303333,NaN,14.223,33.112,40.113,  NaN,0.0, NaN, NaN, NaN, NaN, NaN,325.070,14.50,1018.99,66.60,NaN,12.0,NaN,3.7,NaN,320.2,NaN,3.5,NaN,NaN, NaN,NaN,200.0,NaN,NaN,NaN,2,0.4,001963,   NaN,305.4,     NaN,      NaN,NaN,-0.6,NaN,14.227, NaN,NaN,NaN, NaN, NaN

20040106,003315,19817,32.951833,-117.303333,NaN,14.222,33.112,40.112,  NaN,0.0, NaN, NaN, NaN, NaN, NaN,325.052,14.50,1018.89,68.20,NaN,15.0,NaN,3.7,NaN,322.5,NaN,3.5,NaN,NaN, NaN,NaN,202.0,NaN,NaN,NaN,2,0.4,001993,   NaN,305.6,     NaN,      NaN,NaN,-0.6,NaN,14.225, NaN,NaN,NaN, NaN, NaN

20040106,003345,19847,32.951667,-117.303333,NaN,14.227,33.111,40.116,  NaN,0.0, NaN, NaN, NaN, NaN, NaN,325.245,14.50,1019.06,68.90,NaN,15.0,NaN,3.3,NaN,322.0,NaN,3.0,NaN,NaN, NaN,NaN,202.0,NaN,NaN,NaN,2,0.6,002023,   NaN,305.5,     NaN,      NaN,NaN,-0.6,NaN,14.231, NaN,NaN,NaN, NaN, NaN

20040106,003415,19877,32.951667,-117.303500,NaN,14.235,33.111,40.123,  NaN,0.0, NaN, NaN, NaN, NaN, NaN,325.400,14.50,1018.96,67.80,NaN,15.0,NaN,3.3,NaN,318.2,NaN,3.2,NaN,NaN, NaN,NaN,193.0,NaN,NaN,NaN,2,0.5,002053,   NaN,303.1,     NaN,      NaN,NaN,-0.6,NaN,14.239, NaN,NaN,NaN, NaN, NaN

20040106,003445,19907,32.951667,-117.303500,NaN,14.241,33.111,40.129,  NaN,0.0, NaN, NaN, NaN, NaN, NaN,325.469,14.50,1018.98,68.60,NaN,13.0,NaN,3.9,NaN,317.7,NaN,3.3,NaN,NaN, NaN,NaN,202.0,NaN,NaN,NaN,2,0.5,002083,   NaN,302.7,     NaN,      NaN,NaN,-0.6,NaN,14.244, NaN,NaN,NaN, NaN, NaN

20040106,003515,19937,32.951500,-117.303500,NaN,14.242,33.112,40.131,  NaN,0.0, NaN, NaN, NaN, NaN, NaN,325.439,14.40,1018.98,66.60,NaN,11.0,NaN,4.1,NaN,316.7,NaN,3.8,NaN,NaN, NaN,NaN,215.0,NaN,NaN,NaN,2,0.5,002113,   NaN,306.2,     NaN,      NaN,NaN,-0.6,NaN,14.245, NaN,NaN,NaN, NaN, NaN

20040106,003545,19967,32.951500,-117.303500,NaN,14.245,33.112,40.134,  NaN,0.0, NaN, NaN, NaN, NaN, NaN,325.522,14.40,1018.96,66.40,NaN,10.0,NaN,3.6,NaN,316.1,NaN,3.7,NaN,NaN, NaN,NaN,197.0,NaN,NaN,NaN,2,0.5,002143,   NaN,306.5,     NaN,      NaN,NaN,-0.6,NaN,14.249, NaN,NaN,NaN, NaN, NaN

20040106,003615,19997,32.951500,-117.303500,NaN,14.259,33.110,40.145,  NaN,0.0, NaN, NaN, NaN, NaN, NaN,325.887,14.40,1018.99,67.60,NaN,12.0,NaN,3.6,NaN,317.6,NaN,3.5,NaN,NaN, NaN,NaN,161.0,NaN,NaN,NaN,2,0.5,002173,   NaN,304.7,     NaN,      NaN,NaN,-0.6,NaN,14.262, NaN,NaN,NaN, NaN, NaN

20040106,003645,20027,32.951500,-117.303500,NaN,14.277,33.111,40.162,  NaN,0.0, NaN, NaN, NaN, NaN, NaN,326.233,14.50,1018.96,68.50,NaN,15.0,NaN,3.9,NaN,317.0,NaN,3.8,NaN,NaN, NaN,NaN,169.0,NaN,NaN,NaN,2,0.5,002203,   NaN,300.9,     NaN,      NaN,NaN,-0.6,NaN,14.281, NaN,NaN,NaN, NaN, NaN

20040106,003715,20057,32.951333,-117.303500,NaN,14.285,33.112,40.171,  NaN,0.0, NaN, NaN, NaN, NaN, NaN,326.267,14.40,1018.93,68.30,NaN,19.0,NaN,3.9,NaN,317.1,NaN,3.7,NaN,NaN, NaN,NaN,155.0,NaN,NaN,NaN,2,0.6,002233,   NaN,295.5,     NaN,      NaN,NaN,-0.6,NaN,14.288, NaN,NaN,NaN, NaN, NaN

20040106,003745,20087,32.951333,-117.303500,NaN,14.286,33.113,40.173,  NaN,0.0, NaN, NaN, NaN, NaN, NaN,326.261,14.50,1018.95,69.50,NaN,27.0,NaN,3.7,NaN,318.3,NaN,3.5,NaN,NaN, NaN,NaN,162.0,NaN,NaN,NaN,2,0.5,002263,   NaN,289.4,     NaN,      NaN,NaN,-0.6,NaN,14.290, NaN,NaN,NaN, NaN, NaN

20040106,003815,20117,32.951333,-117.303500,NaN,14.284,33.113,40.171,  NaN,0.0, NaN, NaN, NaN, NaN, NaN,326.202,14.40,1018.94,68.70,NaN,31.0,NaN,3.8,NaN,320.4,NaN,3.6,NaN,NaN, NaN,NaN,163.0,NaN,NaN,NaN,2,0.5,002293,   NaN,283.8,     NaN,      NaN,NaN,-0.6,NaN,14.287, NaN,NaN,NaN, NaN, NaN

20040106,003845,20147,32.951167,-117.303500,NaN,14.284,33.112,40.170,  NaN,0.0, NaN, NaN, NaN, NaN, NaN,326.225,14.40,1018.93,67.60,NaN,36.0,NaN,3.7,NaN,320.7,NaN,3.9,NaN,NaN, NaN,NaN,181.0,NaN,NaN,NaN,2,0.5,002323,   NaN,279.2,     NaN,      NaN,NaN,-0.6,NaN,14.287, NaN,NaN,NaN, NaN, NaN

20040106,003915,20177,32.951167,-117.303500,NaN,14.285,33.112,40.172,  NaN,0.0, NaN, NaN, NaN, NaN, NaN,326.266,14.40,1018.98,66.60,NaN,35.0,NaN,4.2,NaN,317.8,NaN,3.8,NaN,NaN, NaN,NaN,208.0,NaN,NaN,NaN,2,0.6,002353,   NaN,279.0,     NaN,      NaN,NaN,-0.5,NaN,14.289, NaN,NaN,NaN, NaN, NaN

20040106,003945,20207,32.951167,-117.303500,NaN,14.289,33.112,40.175,  NaN,0.0, NaN, NaN, NaN, NaN, NaN,326.344,14.40,1018.96,68.50,NaN,34.0,NaN,3.4,NaN,318.5,NaN,3.6,NaN,NaN, NaN,NaN,215.0,NaN,NaN,NaN,2,0.7,002383,   NaN,282.4,     NaN,      NaN,NaN,-0.5,NaN,14.292, NaN,NaN,NaN, NaN, NaN

20040106,004015,20237,32.951000,-117.303667,NaN,14.294,33.113,40.180,  NaN,0.0, NaN, NaN, NaN, NaN, NaN,326.394,14.40,1018.97,69.20,NaN,25.0,NaN,3.3,NaN,317.4,NaN,3.1,NaN,NaN, NaN,NaN,232.0,NaN,NaN,NaN,2,0.7,002413,   NaN,288.6,     NaN,      NaN,NaN,-0.4,NaN,14.297, NaN,NaN,NaN, NaN, NaN
